Regional Weather Roundup
Issued by NWS

Home | Current Version | Previous Version | Graphics & Text | Print | Product List | Glossary On
Versions: 1 2 3 4 5 6 7 8 9 10 11 12 13 14 15 16 17 18 19 20 21 22 23 24 25 26 27 28 29 30 31 32 33 34 35 36 37 38 39 40 41 42 43 44 45 46 47 48 49 50
000
ASUS43 KLSX 040407
RWRMO

WEATHER SUMMARY FOR MISSOURI
NATIONAL WEATHER SERVICE SPRINGFIELD MO
1100 PM CDT SUN MAY 03 2015

NOTE: "FAIR" INDICATES FEW OR NO CLOUDS BELOW 12,000 FEET WITH NO
       SIGNIFICANT WEATHER AND/OR OBSTRUCTIONS TO VISIBILITY.
       CURRENT SKY AND/OR WEATHER CONDITIONS ARE NOT AVAILABLE FOR
       CHILLICOTHE AND FARMINGTON.

MOZ001>031-035>038-043-044-053-054-040500-
...NORTHERN AND WESTERN MISSOURI...

CITY           SKY/WX    TMP DP  RH WIND       PRES   REMARKS
KANSAS CTY INT CLOUDY    71  58  63 S21G26    29.90R
KANSAS C DTWN  MOCLDY    74  57  55 S18G25    29.89R
LEE`S SUMMIT   PTCLDY    72  55  55 SW17G23   29.91R
ST JOSEPH      CLOUDY    72  59  63 S6        29.90R
CHILLICOTHE      N/A     71  58  63 S7        29.91R
KIRKSVILLE     CLOUDY    73  57  57 SW14G21   29.92R

$$
MOZ066>068-077>081-088>096-101>105-040500-
...SOUTHWEST MISSOURI...

CITY           SKY/WX    TMP DP  RH WIND       PRES   REMARKS
SPRINGFIELD    CLEAR     66  55  67 S8        29.98S
JOPLIN         PTCLDY    67  57  70 S10       29.97R

$$
MOZ032>034-039>042-045>050-055>058-069>072-040500-
...CENTRAL MISSOURI...

CITY           SKY/WX    TMP DP  RH WIND       PRES   REMARKS
COLUMBIA       CLEAR     66  55  67 S9        29.94S
JEFFERSON CITY CLEAR     71  53  52 SE7       29.93F
ROLLA          CLEAR     69  53  56 S12       29.97S
SEDALIA        PTCLDY    67  57  70 S8        29.94R
WHITEMAN AFB   PTCLDY    68  58  69 SW10      29.92R
WARRENSBURG    PTCLDY    68  55  64 S7        29.93R
OSAGE BEACH    PTCLDY    70  54  56 S5        29.96S

$$
MOZ051-052-059>065-040500-
...EAST CENTRAL MISSOURI...

CITY           SKY/WX    TMP DP  RH WIND       PRES   REMARKS
ST LOUIS INTL  PTCLDY    75  50  41 S12       29.96F
SPIRIT OF STL  PTCLDY    73  51  46 S9        29.94F
ST CHARLES     PTCLDY    71  51  49 S9        29.95R

$$
MOZ072>076-082>087-097>100-106>115-040500-
...SOUTH CENTRAL AND SOUTHEAST MISSOURI...

CITY           SKY/WX    TMP DP  RH WIND       PRES   REMARKS
CAPE GIRARDEAU MOCLDY    70  48  45 S12       30.04R
FARMINGTON     PTCLDY    64  52  63 SE7       30.05F
POPLAR BLUFF   PTCLDY    70  52  52 S7        30.02S
WEST PLAINS    CLEAR     69  53  56 S8        30.03S

$$


USA.gov is the U.S. government's official web portal to all federal, state and local government web resources and services.